Location: Grange Rosano
(44.4500°N, 6.9667°E)
Time: 19:14:04
(UTC+00:00)

CRYOSAT 2 - Pass Details

Date: 26 May 2022
Orbit: 716 x 723 km, 92.0° (Epoch: 01 July)

Event Time Altitude Azimuth Distance (km) Brightness Sun altitude
Exits shadow 01:36:45 25° 169° (SSE) 1,434 5.5 -18.3°
Maximum altitude 01:39:38 82° 84° (E) 734 4.4 -18.0°
Drops below altitude 10° 01:44:33 10° 357° (N) 2,221 7.7 -17.5°
Sets 01:46:51 0° 357° (N) 3,147 8.6 -17.3°
